User: anonymous   Login
Location: Ammerl�gen
(47.2167°N, 9.6000°E)
Time: 10:03:55
(UTC+00:00)
Language:

XW-2D - Orbit

View from above orbital plane
View from above orbital plane
View from above satellite
View from above satellite

Ground track
Ground track

The orbit data is extracted from the following two-line orbital elements,

1 40907U 15049J   21334.93677912  .00002149  00000-0  10999-3 0  9993
2 40907  97.4897 335.1641 0012815 332.2437  90.4811 15.17637782342841
Epoch (UTC): 30 November 2021 22:28:57
Eccentricity: 0.0012815
inclination: 97.4897°
perigee height: 504 km
apogee height: 522 km
right ascension of ascending node: 335.1641°
argument of perigee: 332.2437°
revolutions per day: 15.17637782
mean anomaly at epoch: 90.4811°
orbit number at epoch: 34284

The dashed part of the orbit path shows where the satellite is in the earth's shadow,  

DLR